Flag for Spain Weather past 2 weeks in Zaragoza, Spain

Now
57 °F

Passing clouds.


Feels Like: 53 °F
Forecast: 42 / 54 °F
Wind: 23 mph from Northwest

Location: Zaragoza / Aeropuerto

Current Time: Dec 26, 2014 at 3:33:16 PM

Latest Report: Dec 26, 2014 at 3:00 PM


Visibility: N/A

Pressure: 30.39 "Hg

Humidity: 59%

Dew point: 43 °F

Location of ZaragozaLocation

Historic Weather in Zaragoza — Graph

°F

Zaragoza temperature yesterday

Maximum temperature yesterday: 46 °F (at 9:00 PM)
Minimum temperature yesterday: 30 °F (at 10:00 AM)
Average temperature yesterday: 37 °F

Past Weeks' High & Low Weather Summary

 TemperatureHumidityPressure
High59 °F (Dec 17, 2:00 PM)100% (Dec 12, 6:30 AM)30.57 "Hg (Dec 12, 6:30 AM)
Low30 °F (Dec 25, 10:00 AM)51% (Dec 11, 4:00 PM)29.92 "Hg (Dec 13, 1:00 PM)
Average45 °F85%30.28 "Hg
* Reported Dec 11 2:00 PM — Dec 26 2:30 PM, Zaragoza, Weather by CustomWeather, © 2014

Note: Actual official high and low records may vary slightly from our data, if they occured in-between our weather recording intervals... More about our weather records

Advertising

Zaragoza weather history for previous 24 hours

 ConditionsComfort  
Time TempWeatherWind HumidityBarometerVisibility
2:30 PM
Dec 26
57 °FPassing clouds.20 mph55%30.39 "HgN/A
2:00 PM57 °FPassing clouds.22 mph55%30.39 "HgN/A
1:30 PM57 °FPassing clouds.24 mph55%30.39 "HgN/A
1:00 PM55 °FPassing clouds.25 mph59%30.42 "HgN/A
12:30 PM55 °FPassing clouds.24 mph59%30.42 "HgN/A
12:00 PM54 °FPassing clouds.23 mph63%30.45 "HgN/A
11:30 AM54 °FPassing clouds.22 mph63%30.45 "HgN/A
11:00 AM52 °FPassing clouds.18 mph67%30.45 "HgN/A
10:30 AM50 °FPassing clouds.17 mph71%30.45 "HgN/A
10:00 AM50 °FPassing clouds.16 mph71%30.45 "HgN/A
9:30 AM48 °FPassing clouds.9 mph76%30.45 "HgN/A
9:00 AM46 °FPassing clouds.7 mph76%30.45 "HgN/A
8:30 AM45 °FPassing clouds.9 mph81%30.45 "HgN/A
8:00 AM45 °FPassing clouds.10 mph87%30.42 "HgN/A
7:30 AM46 °FClear.23 mph82%30.42 "Hg10 mi
7:00 AM46 °FClear.24 mph87%30.39 "Hg10 mi
6:30 AM46 °FClear.21 mph87%30.42 "Hg10 mi
6:00 AM46 °FClear.16 mph82%30.42 "Hg10 mi
5:30 AM46 °FClear.18 mph82%30.42 "Hg10 mi
5:00 AM46 °FPassing clouds.20 mph76%30.42 "HgN/A
4:30 AM46 °FPassing clouds.21 mph76%30.42 "HgN/A
3:30 AM45 °FPassing clouds.18 mph87%30.45 "HgN/A
3:00 AM46 °FPassing clouds.15 mph82%30.45 "HgN/A
2:30 AM46 °FPassing clouds.17 mph82%30.45 "HgN/A
2:00 AM46 °FPassing clouds.24 mph76%30.45 "HgN/A
1:30 AM45 °FPassing clouds.17 mph81%30.45 "HgN/A
1:00 AM45 °FPassing clouds.18 mph81%30.45 "HgN/A
12:30 AM46 °FPassing clouds.18 mph82%30.45 "HgN/A
12:00 AM46 °FPassing clouds.17 mph82%30.45 "HgN/A
11:30 PM
Dec 25
46 °FPassing clouds.15 mph82%30.45 "HgN/A
11:00 PM46 °FClear.15 mph82%30.45 "Hg10 mi
10:30 PM46 °FClear.16 mph87%30.45 "Hg10 mi
10:00 PM46 °FClear.17 mph87%30.45 "Hg10 mi
9:30 PM46 °FClear.17 mph87%30.45 "Hg10 mi
9:00 PM46 °FClear.13 mph87%30.45 "Hg10 mi
8:30 PM43 °FClear.10 mph100%30.45 "Hg10 mi
8:00 PM37 °FFog.1 mph100%30.45 "Hg3 mi
7:30 PM37 °FFog.No wind100%30.45 "Hg3 mi
7:00 PM37 °FFog.1 mph100%30.45 "Hg3 mi
6:30 PM39 °FFog.1 mph93%30.45 "Hg3 mi
6:00 PM39 °FFog.2 mph93%30.45 "Hg3 mi
5:30 PM41 °FPartly sunny.2 mph93%30.42 "Hg4 mi
5:00 PM41 °FPartly sunny.2 mph93%30.45 "Hg4 mi
4:30 PM41 °FPartly sunny.3 mph93%30.45 "Hg4 mi
4:00 PM41 °FPartly sunny.3 mph93%30.45 "Hg4 mi
3:30 PM41 °FPartly sunny.5 mph93%30.45 "Hg4 mi
3:00 PM41 °FPassing clouds.3 mph93%30.45 "Hg4 mi
Weather by CustomWeather, © 2014

See weather overviewHow to use our weather pages